Tracking 32139 objects as of 18-Nov-2025
HD Live streaming from Space Station
objects crossing your sky now

STARLINK-35159

Track STARLINK-35159 now!
10-day predictions
STARLINK-35159 is classified as:


NORAD ID: 65461
Int'l Code: 2025-195D
Perigee: 474.4 km
Apogee: 476.9 km
Inclination: 53.2 °
Period: 94.0 minutes
Semi major axis: 6846 km
RCS: Unknown
Launch date: September 3, 2025
Source: United States (US)
Launch site: AIR FORCE EASTERN TEST RANGE (AFETR)
Your satellite tracking list
Your tracking list is empty




NASA's NSSDC Master Catalog

Two Line Element Set (TLE):
1 65461U 25195D   25321.83337963 -.01863681  00000-0 -65480-1 0  9998
2 65461  53.1605  57.9645 0001813  66.0288 340.7083 15.32434586  5992
Source of the keplerian elements: AFSPC